Orbital Elements at Epoch 2459000.5 (2020-May-31.0) TDB
Reference: JPL 18 (heliocentric ecliptic J2000)
Element | Value | Uncertainty (1-sigma) | Units |
e | .1418671805661767 | 7.0896e-08 | |
a | 2.578333333084692 | 1.4039e-08 | au |
q | 2.212552452560173 | 1.7875e-07 | au |
i | 1.827239577108252 | 4.213e-06 | deg |
node | 315.525033876996 | 0.0001748 | deg |
peri | 64.11431032002658 | 0.00017555 | deg |
M | 152.1341577032395 | 1.5385e-05 | deg |
tp | 2458361.455273456191 (2018-Aug-30.95527346) | 6.3949e-05 | TDB |
period | 1512.192298093438 4.14 | 1.2351e-05 3.382e-08 | d yr |
n | .2380649606891172 | 1.9444e-09 | deg/d |
Q | 2.94411421360921 | 1.6031e-08 | au |
|
| | Orbit Determination Parameters
Additional Information
|